FENGYUN 1C DEB

Satellite information

Favourite Embed

Satellite Type and Status

DEBRISIN ORBIT

Key statistics

Satellite FENGYUN 1C DEB at a glance.

Uptime

9658

Days in orbit

Revolutions

≈ 14.1

Per day

Orbit

SSO

Sun Synchronous Orbit

Inclination

98.1

Latest

Satellite identification and parameters

Extended collection of information and parameters for FENGYUN 1C DEB.

Object identification

Identified? True

Debris? True

Object name: FENGYUN 1C DEB

International designator: 1999-025ESZ

Object number (NORAD): 38514

Object ID (CCSDS): 38514

Country: PEOPLES REPUBLIC OF CHINA (PRC)

Current information (Y/N): Y

RCS size: SMALL

Orbital parameters

Period: 101.906 minutes

Inclination: 98.0571 deg

SMA: 7227.051 km

Apoapsis: 1053.229 km

Periapsis: 644.604 km

RAAN: 324.9203 deg

Eccentricy: 0.0282705

Argument of periapsis: 179.0849 deg

Mean anomaly: 181.0903 deg

Mean motion: 14.13061488 rev/day

Mean motion (dot): 0.00022233 rev/day2

B* drag term: 0.0081289 1/REarth

Two-line elements (TLE)

Creation date: Oct. 17, 2025, 6:56 a.m.

Reference frame: TEME

Reference center: EARTH

Epoch: Oct. 16, 2025, 8:51 p.m. UTC

TLE line 0: 0 FENGYUN 1C DEB

TLE line 1: 1 38514U 99025ESZ 25289.86928296 .00022233 00000-0 81289-2 0 9994

TLE line 2: 2 38514 98.0571 324.9203 0282705 179.0849 181.0903 14.13061488871923

Live tracking on map

Real-time ground track for satellite FENGYUN 1C DEB.

In-orbit conjunctions

A list of the most updated potential collisions computed for object FENGYUN 1C DEB.

Target Orbit TCA Probability of collision Miss distance Type
SL-3 R/B LEO 2025-10-12 00:53:45 0.0001083824 537.0 (m) ROCKET BODY
SL-8 R/B LEO 2025-04-12 15:17:47 0.0007134704 130.0 (m) ROCKET BODY
CZ-6A DEB LEO 2025-03-27 15:05:33 0.0001103144 27.0 (m) DEBRIS
COSMOS 2251 DEB LEO 2024-06-15 20:58:37 0.0001099303 75.0 (m) DEBRIS

Associated space launch

Chinese polar orbiting meteorological satellite

FENGYUN 1C DEB was lifted into orbit during the mission ‘Long March 4B | Feng Yun 1C’, on board a Long March 4B space rocket.

The launch took place on May 10, 1999, 1:33 a.m. from Launch Complex 7.

For more information about the launch, click the button.

Launch to space Long March 4B | Feng Yun 1C
Long March 4B | Feng Yun 1C

Agency: N/A

Status: Launch Successful

Launch date: May 10, 1999, 1:33 a.m. UTC

Rocket: Long March 4B

Launch pad: Launch Complex 7

Location: Taiyuan Satellite Launch Center, People's Republic of China

...

Latest news about this satellite

There are no fresh news available about this satellite. Check back as we update our databases every day.


Newsletter sign-up

Weekly statistics, charts and insights to help you stay on top of the space industry.